Regional Weather Roundup
Issued by NWS

Home | Current Version | Previous Version | Graphics & Text | Print | Product List | Glossary Off
Versions: 1 2 3 4 5 6 7 8 9 10 11 12 13 14 15 16 17 18 19 20 21 22 23 24 25 26 27 28 29 30 31 32 33 34 35 36 37 38 39 40 41 42 43 44 45 46 47 48 49 50

000
ASUS43 KTOP 210059
RWRKS

WEATHER ROUNDUP FOR KANSAS
NATIONAL WEATHER SERVICE GOODLAND KS
700 PM CST TUE FEB 20 2018

NOTE:  "FAIR" INDICATES FEW OR NO CLOUDS BELOW 12,000 FEET WITH NO
SIGNIFICANT WEATHER AND/OR OBSTRUCTIONS TO VISIBILITY.

KSZ001>006-013>018-027>032-041>047-210200-
NORTHWEST KANSAS

CITY           SKY/WX    TMP DP  RH WIND       PRES   REMARKS
GOODLAND       FAIR       9   1  70 N6        30.20R
HAYS           FAIR      19   5  54 N12       30.27R WCI   7
HILL CITY      FAIR      17   2  51 N8        30.29R
RUSSELL        FAIR      22   6  50 N14       30.26R WCI   9
$$

KSZ061>065-074>080-084>089-210200-
SOUTHWEST KANSAS

CITY           SKY/WX    TMP DP  RH WIND       PRES   REMARKS
DODGE CITY     FAIR      22   1  40 N14       30.20R WCI   9
GARDEN CITY    MOCLDY    21  -2  36 N13       30.21R WCI   9
GREAT BEND     FAIR      21   8  57 N12       30.25R WCI   9
LIBERAL        FAIR      26   4  38 NE14      30.19R WCI  14
$$

KSZ066>073-081>083-090>101-210200-
SOUTHEAST KANSAS

CITY           SKY/WX    TMP DP  RH WIND       PRES   REMARKS
CHANUTE        CLOUDY    25  21  85 N16       30.21R WCI  12
COFFEYVILLE    CLOUDY    28  25  88 N17       30.21R WCI  16
HUTCHINSON     FAIR      24  15  68 N16G22    30.23R WCI  11
MEDICINE LODGE   N/A     26  14  60 N17G25    30.22R WCI  13
NEWTON         FAIR      21  17  84 N14       30.23R WCI   8
PARSONS        CLOUDY    27  24  89 N14G22    30.19S WCI  16
WICHITA INTL   MOCLDY    24  19  81 N15       30.23R WCI  11
WICHITA JABRA  FAIR      22  19  89 N13       30.23R WCI  10
WICHITA MCCONL FAIR      23  17  80 N14       30.23R WCI  10
WINFIELD       CLOUDY    24  21  88 N16       30.24R WCI  11
$$

KSZ007>012-019>026-033>040-048>060-102>105-210200-
NORTHEAST KANSAS

CITY           SKY/WX    TMP DP  RH WIND       PRES   REMARKS
CONCORDIA      FAIR      20   9  62 N13       30.29R WCI   7
EMPORIA        FAIR      22  17  81 N14       30.24R WCI   9
LAWRENCE       FAIR      23  17  78 NW9       30.28R
MANHATTAN      CLOUDY    24  13  62 N13       30.30R WCI  12
OLATHE IND     FAIR      22  18  85 N17       30.25R WCI   8
OLATHE EXE     FAIR      21  17  84 N16       30.23R WCI   7
SALINA         MOCLDY    25  14  63 N15       30.28R WCI  13
TOPEKA BILLARD FAIR      23  18  81 N13G21    30.29R WCI  11
TOPEKA FORBES  CLOUDY    24  18  77 N14       30.26R WCI  12
$$



USA.gov is the U.S. government's official web portal to all federal, state and local government web resources and services.